Location: Campana House
(38.2099°N, 119.0124°W)
Time: 07:09:18
(UTC+00:00)

Daily predictions for brighter satellites

Satellite Brightness Start Highest point End
(mag) Time Altitude Azimuth Time Altitude Azimuth Time Altitude Azimuth
ADEOS II 4.2 12:03:34 10° NW 12:04:40 11° WNW 12:05:47 10° WNW
SL-16 R/B 4.1 12:06:50 10° W 12:07:18 10° W 12:07:18 10° W
NOSS 2-2 (E) 4.5 12:05:36 10° S 12:08:52 35° ESE 12:12:15 10° NE
H-2A R/B 2.5 12:05:51 10° SSW 12:09:41 37° W 12:13:31 10° NNW
Cosmos 1125 Rocket 3.5 12:05:02 10° SSW 12:10:08 67° WNW 12:15:23 10° NNE
FALCON 9 DEB 3.2 12:08:13 10° WNW 12:11:37 53° SW 12:14:58 10° SSE
USA 267 3.2 12:08:41 10° SE 12:15:13 75° SW 12:21:46 10° NW
Meteor 1-31 Rocket 4.3 12:14:50 10° NNE 12:18:27 38° E 12:22:01 10° SSE
Cosmos 1825 Rocket 3.7 12:15:31 10° NNW 12:19:42 51° W 12:23:52 10° SSW
Cosmos 2263 Rocket 3.6 12:18:12 11° WSW 12:22:20 22° NW 12:26:38 10° N
Aureole 3 4.4 12:17:32 10° SSW 12:22:22 52° WNW 12:28:30 10° N
Cosmos 1484 Rocket 3.8 12:19:03 10° NNE 12:22:38 45° E 12:26:12 10° S
Atlas Centaur 2 3.8 12:19:12 10° SW 12:26:06 38° SSE 12:33:45 10° E
Cosmos 1953 Rocket 3.6 12:22:15 10° NNW 12:26:44 68° W 12:31:09 10° S
Cosmos 494 Rocket 4.1 12:22:06 10° NNW 12:27:17 84° ENE 12:32:28 10° SSE
Delta 2 Rocket 3.5 12:25:29 10° WSW 12:29:02 53° S 12:33:08 10° E
Cosmos 1709 Rocket 4.3 12:24:11 10° N 12:30:23 75° E 12:36:28 10° SSE
Hubble Space Telescope 3.2 12:33:09 10° S 12:34:07 11° SSE 12:35:06 10° SSE
CZ-4B R/B 1.4 12:33:55 10° S 12:37:11 57° W 12:40:23 10° NNW
SeaSat 1 3.5 12:33:51 10° N 12:38:06 29° NW 12:42:19 10° WSW
Cosmos 2315 Rocket 4.1 12:32:03 10° S 12:38:21 89° WNW 12:44:45 10° N
ERS-2 3.6 12:37:05 10° SW 12:39:37 18° W 12:42:11 10° NW
